Tracking 27122 objects as of 26-Mar-2023
HD Live streaming from Space Station
objects crossing your sky now

STARLINK-3661

Track STARLINK-3661 now!
10-day predictions
STARLINK-3661 is classified as:


NORAD ID: 52129
Int'l Code: 2022-029AT
Perigee: 546.0 km
Apogee: 547.8 km
Inclination: 53.2 °
Period: 95.4 minutes
Semi major axis: 6917 km
RCS: Unknown
Launch date: March 19, 2022
Source: United States (US)
Launch site: AIR FORCE EASTERN TEST RANGE (AFETR)
Your satellite tracking list
Your tracking list is empty




NASA's NSSDC Master Catalog

Two Line Element Set (TLE):
1 52129U 22029AT  23084.76690086 -.00005566  00000-0 -33205-3 0  9993
2 52129  53.2167 237.0788 0001285 114.1139 245.9987 15.08822617 57901
Source of the keplerian elements: AFSPC